DW5247 Lemo FI current weather conditions

sailwx.info

Wind from 068 at 6 knots gusting 9

Air temperature 1.1° C
Dewpoint 0.7° C

Last reported at 2016-Feb-08 13:42 UTC.
Time now 2016-Feb-08 14:33 UTC

Location: N 62°41' E 029°49'.
View on Google Maps.

See reports from other nearby stations

  
Tides and Currents Weather Stations Pressure Air Temp Water Temp Dewpoint Dewpoint Depression Visibility Wind Speed Wind Dir Waves Ship Positions
date/time (UTC)wind fromknots sea level pressurealtimeterstation pressurevisibilityair tempwater tempwave heightnotes
2016-Feb-08 13:42 068 6 gusting 9 1.1
2016-Feb-08 13:37 068 5 gusting 9 1.1
2016-Feb-08 13:32 068 5 gusting 8 1.1
2016-Feb-08 13:27 113 6 gusting 9 1.1
2016-Feb-08 13:22 068 6 gusting 9 1.1
2016-Feb-08 13:17 068 6 gusting 10 1.1
2016-Feb-08 13:12 068 6 gusting 10 1.1
2016-Feb-08 13:07 068 6 gusting 9 1.1
2016-Feb-08 13:02 045 6 gusting 10 1.1
2016-Feb-08 12:57 068 6 gusting 10 1.1
2016-Feb-08 12:52 068 6 gusting 10 1.1
2016-Feb-08 12:47 068 6 gusting 8 1.1
2016-Feb-08 12:42 045 5 gusting 9 1.1
2016-Feb-08 12:37 090 6 gusting 9 1.1
2016-Feb-08 12:32 113 6 gusting 9 1.1
2016-Feb-08 12:27 068 5 gusting 10 1.1
2016-Feb-08 12:22 068 5 gusting 10 1.1
2016-Feb-08 12:17 090 6 gusting 10 1.1
2016-Feb-08 12:12 090 7 gusting 10 1.1
2016-Feb-08 12:07 068 6 gusting 9 1.1
2016-Feb-08 12:02 090 6 gusting 9 1.1
2016-Feb-08 11:57 068 6 gusting 9 1.1
2016-Feb-08 11:52 090 6 gusting 10 1.1
2016-Feb-08 11:47 068 6 gusting 10 1.1
2016-Feb-08 11:42 090 6 gusting 10 1.1
2016-Feb-08 11:37 068 6 gusting 7 1.1
2016-Feb-08 11:32 068 5 gusting 7 1.1
2016-Feb-08 11:27 045 5 gusting 8 1.1
2016-Feb-08 11:22 068 5 gusting 11 1.1
2016-Feb-08 11:17 068 6 gusting 11 1.1
2016-Feb-08 11:12 090 6 gusting 11 1.1
2016-Feb-08 11:07 090 6 gusting 9 1.1
2016-Feb-08 11:02 045 6 gusting 10 1.1
2016-Feb-08 10:57 090 5 gusting 10 1.1
2016-Feb-08 10:52 068 6 gusting 10 1.1
2016-Feb-08 10:47 068 5 gusting 8 1.1
2016-Feb-08 10:42 113 5 gusting 10 1.1
2016-Feb-08 10:37 045 6 gusting 10 1.1
2016-Feb-08 10:32 090 6 gusting 10 1.1
2016-Feb-08 10:27 068 5 gusting 7 1.1
2016-Feb-08 10:22 045 5 gusting 7 1.1
2016-Feb-08 10:17 068 6 gusting 7 1.1
2016-Feb-08 10:12 068 6 gusting 7 1.1
2016-Feb-08 10:07 068 6 gusting 7 1.1
2016-Feb-08 10:02 068 6 gusting 10 1.1
2016-Feb-08 09:57 068 6 gusting 10 1.1
2016-Feb-08 09:52 113 6 gusting 9 1.1
2016-Feb-08 09:47 068 6 gusting 11 1.1
2016-Feb-08 09:42 068 6 gusting 11 1.1
2016-Feb-08 09:37 045 6 gusting 7 1.1
2016-Feb-08 09:32 068 6 gusting 7 1.1
2016-Feb-08 09:27 068 5 gusting 7 1.1
2016-Feb-08 09:22 023 5 gusting 7 1.1
2016-Feb-08 09:17 068 4 gusting 6 1.1
2016-Feb-08 09:12 068 5 gusting 11 1.1
2016-Feb-08 09:07 090 5 gusting 11 1.1
2016-Feb-08 09:02 090 5 gusting 8 1.1
2016-Feb-08 08:57 068 5 gusting 11 1.1
2016-Feb-08 08:52 135 5 gusting 11 1.1
2016-Feb-08 08:47 068 5 gusting 11 1.1
2016-Feb-08 08:42 068 6 gusting 9 1.1
2016-Feb-08 08:37 023 6 gusting 8 1.1
2016-Feb-08 08:32 045 6 gusting 9 1.1
2016-Feb-08 08:27 045 6 gusting 9 1.1
2016-Feb-08 08:22 090 6 gusting 9 1.1
2016-Feb-08 08:17 068 5 gusting 10 1.7
2016-Feb-08 08:12 045 6 gusting 10 1.1
2016-Feb-08 08:07 068 5 gusting 6 1.1
2016-Feb-08 08:02 068 5 gusting 6 1.1
2016-Feb-08 07:57 113 5 gusting 6 1.7
2016-Feb-08 07:52 090 4 gusting 6 1.1
2016-Feb-08 07:42 090 4 gusting 10 1.7
2016-Feb-08 07:37 045 5 gusting 12 1.7
2016-Feb-08 07:32 045 6 gusting 12 1.7
2016-Feb-08 07:27 068 6 gusting 12 1.7
2016-Feb-08 07:22 113 5 gusting 12 1.7
2016-Feb-08 07:17 045 6 gusting 12 1.7
2016-Feb-08 07:12 068 6 gusting 12 1.7
2016-Feb-08 07:07 068 5 gusting 6 1.7
2016-Feb-08 07:02 113 6 gusting 6 1.7
2016-Feb-08 06:57 090 6 gusting 8 1.7
2016-Feb-08 06:52 068 6 gusting 10 1.7
2016-Feb-08 06:47 068 6 gusting 10 1.7
2016-Feb-08 06:42 045 6 gusting 10 1.7
2016-Feb-08 06:37 068 5 gusting 9 1.7
2016-Feb-08 06:32 023 5 gusting 9 1.7
2016-Feb-08 06:27 068 6 gusting 11 1.7
2016-Feb-08 06:22 045 6 gusting 11 1.7
2016-Feb-08 06:17 068 6 gusting 11 1.7
2016-Feb-08 06:12 068 6 gusting 9 1.7
2016-Feb-08 06:07 113 5 gusting 9 1.7
2016-Feb-08 06:02 068 6 gusting 9 1.7
2016-Feb-08 05:57 068 6 gusting 8 1.7
2016-Feb-08 05:52 113 6 gusting 6 1.7
2016-Feb-08 05:47 068 5 gusting 6 1.7
2016-Feb-08 05:42 068 4 gusting 8 1.7
2016-Feb-08 05:37 068 5 gusting 8 1.7
2016-Feb-08 05:32 068 5 gusting 8 1.7
2016-Feb-08 05:27 068 5 gusting 7 1.7
2016-Feb-08 05:22 090 4 gusting 8 1.7
2016-Feb-08 05:17 113 4 gusting 8 1.7
2016-Feb-08 05:12 068 5 gusting 9 1.7
2016-Feb-08 05:07 090 5 gusting 9 1.7
2016-Feb-08 05:02 068 5 gusting 9 1.7
2016-Feb-08 04:57 068 5 gusting 9 1.7
2016-Feb-08 04:52 068 5 gusting 9 1.7
2016-Feb-08 04:47 045 4 gusting 6 1.7
2016-Feb-08 04:42 068 4 gusting 9 1.7
2016-Feb-08 04:37 045 5 gusting 13 1.7
2016-Feb-08 04:32 090 6 gusting 13 1.7
2016-Feb-08 04:27 090 6 gusting 13 1.7
2016-Feb-08 04:22 068 5 gusting 6 1.7
2016-Feb-08 04:17 068 5 gusting 6 1.7
2016-Feb-08 04:12 090 6 gusting 7 1.7
2016-Feb-08 04:07 090 6 gusting 9 1.7
2016-Feb-08 04:02 090 6 gusting 9 1.7
2016-Feb-08 03:57 068 6 gusting 9 1.7
2016-Feb-08 03:52 045 6 gusting 8 1.7
2016-Feb-08 03:47 248 5 gusting 10 1.7
2016-Feb-08 03:42 045 5 gusting 12 1.7
2016-Feb-08 03:37 090 6 gusting 12 1.7
2016-Feb-08 03:32 090 6 gusting 12 1.7
2016-Feb-08 03:27 068 6 gusting 9 1.7
2016-Feb-08 03:22 090 6 gusting 8 1.7
2016-Feb-08 03:17 068 6 gusting 8 1.7
2016-Feb-08 03:12 068 5 gusting 8 1.7
2016-Feb-08 03:07 045 4 gusting 8 1.7
2016-Feb-08 03:02 045 4 gusting 6 1.7
2016-Feb-08 02:57 068 5 gusting 7 1.7
2016-Feb-08 02:52 068 5 gusting 7 1.7
2016-Feb-08 02:47 090 5 gusting 7 1.7
2016-Feb-08 02:42 068 5 gusting 9 1.7
2016-Feb-08 02:37 113 5 gusting 9 1.7
2016-Feb-08 02:32 045 6 gusting 13 1.7
2016-Feb-08 02:27 068 6 gusting 13 1.7
2016-Feb-08 02:22 090 6 gusting 13 1.7
2016-Feb-08 02:17 090 6 gusting 9 1.7
2016-Feb-08 02:12 045 6 gusting 9 1.7
2016-Feb-08 02:07 045 7 gusting 8 1.7
2016-Feb-08 02:02 068 6 gusting 9 1.7
2016-Feb-08 01:57 113 7 gusting 9 1.7
2016-Feb-08 01:52 068 7 gusting 12 1.7
2016-Feb-08 01:47 045 6 gusting 12 1.7
2016-Feb-08 01:42 068 6 gusting 12 1.7
2016-Feb-08 01:37 045 6 gusting 11 1.7
2016-Feb-08 01:32 068 7 gusting 13 1.7
2016-Feb-08 01:27 068 7 gusting 13 1.7
2016-Feb-08 01:22 113 6 gusting 13 1.7
2016-Feb-08 01:17 068 7 gusting 11 1.7
2016-Feb-08 01:12 068 7 gusting 11 1.7
2016-Feb-08 01:07 068 7 gusting 11 1.7
2016-Feb-08 01:02 068 7 gusting 9 1.7
2016-Feb-08 00:57 090 6 gusting 12 1.7
2016-Feb-08 00:52 068 6 gusting 12 1.7
2016-Feb-08 00:47 068 6 gusting 7 1.7
2016-Feb-08 00:42 068 6 gusting 7 1.7
2016-Feb-08 00:37 045 5 gusting 9 1.7
2016-Feb-08 00:32 068 5 gusting 9 1.7
2016-Feb-08 00:27 068 5 gusting 9 1.7
2016-Feb-08 00:22 068 5 gusting 7 1.7
2016-Feb-08 00:17 068 5 gusting 9 1.7
2016-Feb-08 00:12 090 5 gusting 9 1.7
2016-Feb-08 00:07 090 5 gusting 8 1.7
2016-Feb-08 00:02 045 4 gusting 8 1.7
2016-Feb-07 23:57 023 4 gusting 8 1.7
2016-Feb-07 23:52 045 5 gusting 8 1.7
2016-Feb-07 23:47 068 5 gusting 6 1.7
2016-Feb-07 23:42 068 5 gusting 8 1.7
2016-Feb-07 23:37 113 4 gusting 8 1.7
2016-Feb-07 23:32 068 5 gusting 7 1.7
2016-Feb-07 23:27 045 5 gusting 7 1.7
2016-Feb-07 23:22 045 5 gusting 6 1.7
2016-Feb-07 23:17 090 4 gusting 7 1.7
2016-Feb-07 23:12 023 3 gusting 8 1.7
2016-Feb-07 23:07 045 4 gusting 8 1.7
2016-Feb-07 23:02 068 4 gusting 8 1.7
2016-Feb-07 22:57 068 4 gusting 6 1.7
2016-Feb-07 22:52 068 3 gusting 6 1.7
2016-Feb-07 22:47 068 4 gusting 8 1.7
2016-Feb-07 22:42 090 4 gusting 8 1.7
2016-Feb-07 22:37 068 4 gusting 8 1.7
2016-Feb-07 22:32 068 4 gusting 8 1.7
2016-Feb-07 22:27 068 4 gusting 8 1.7
2016-Feb-07 22:22 045 4 gusting 8 1.7
2016-Feb-07 22:17 090 5 gusting 8 1.7
2016-Feb-07 22:12 045 3 gusting 8 1.7
2016-Feb-07 22:07 045 3 gusting 6 1.7
2016-Feb-07 21:57 090 4 gusting 9 1.7
2016-Feb-07 21:52 068 4 gusting 6 1.7
2016-Feb-07 21:47 068 5 gusting 6 1.7
2016-Feb-07 21:42 068 4 gusting 6 1.7
2016-Feb-07 21:37 090 4 gusting 6 1.7
2016-Feb-07 21:32 090 3 gusting 5 1.7
2016-Feb-07 21:27 113 3 gusting 5 1.7
2016-Feb-07 21:22 068 3 gusting 7 1.7
2016-Feb-07 21:17 068 4 gusting 7 1.7
2016-Feb-07 21:12 113 4 gusting 7 1.7
2016-Feb-07 21:07 090 3 gusting 7 1.7
2016-Feb-07 21:02 068 4 gusting 7 1.7
2016-Feb-07 20:57 068 4 gusting 7 1.7
2016-Feb-07 20:52 045 4 gusting 5 1.7
2016-Feb-07 20:47 068 3 gusting 6 1.7
2016-Feb-07 20:42 158 4 gusting 6 1.7
2016-Feb-07 20:37 068 4 gusting 8 1.7
2016-Feb-07 20:32 068 4 gusting 8 1.7
2016-Feb-07 20:27 068 4 gusting 8 1.7
2016-Feb-07 20:22 068 5 gusting 11 1.7
2016-Feb-07 20:17 068 5 gusting 11 2.2
2016-Feb-07 20:12 090 5 gusting 11 2.2
2016-Feb-07 20:07 045 5 gusting 7 2.2
2016-Feb-07 20:02 068 5 gusting 9 2.2
2016-Feb-07 19:57 090 5 gusting 9 2.2
2016-Feb-07 19:52 068 4 gusting 9 2.2
2016-Feb-07 19:47 068 4 gusting 6 1.7
2016-Feb-07 19:42 068 3 gusting 7 1.7
2016-Feb-07 19:37 090 4 gusting 7 2.2
2016-Feb-07 19:32 090 5 gusting 7 2.2
2016-Feb-07 19:27 045 4 gusting 7 2.2
2016-Feb-07 19:22 090 3 gusting 6 2.2
2016-Feb-07 19:17 068 4 gusting 7 2.2
2016-Feb-07 19:12 068 4 gusting 7 2.2
2016-Feb-07 19:07 135 4 gusting 7 2.2
2016-Feb-07 19:02 090 4 gusting 6 2.2
2016-Feb-07 18:57 045 3 gusting 7 2.2
2016-Feb-07 18:52 068 3 gusting 7 2.2
2016-Feb-07 18:47 090 4 gusting 9 2.2
2016-Feb-07 18:42 045 4 gusting 9 2.2
2016-Feb-07 18:37 068 4 gusting 9 2.2
2016-Feb-07 18:32 045 4 gusting 5 2.2
2016-Feb-07 18:27 068 3 gusting 5 2.2
2016-Feb-07 18:22 068 3 gusting 6 2.2
2016-Feb-07 18:17 068 3 gusting 6 2.2
2016-Feb-07 18:12 068 3 gusting 7 2.2
2016-Feb-07 18:07 248 3 gusting 7 2.2
2016-Feb-07 18:02 068 3 gusting 7 2.2
2016-Feb-07 17:57 068 4 gusting 7 2.2
2016-Feb-07 17:52 090 4 gusting 7 2.2
2016-Feb-07 17:47 068 4 gusting 6 2.2
2016-Feb-07 17:42 090 4 gusting 7 2.2
2016-Feb-07 17:37 090 4 gusting 7 2.2
2016-Feb-07 17:32 068 3 gusting 7 2.2
2016-Feb-07 17:27 068 4 gusting 6 2.2
2016-Feb-07 17:22 068 4 gusting 6 2.2
2016-Feb-07 17:17 113 4 gusting 6 2.2
2016-Feb-07 17:12 068 4 gusting 6 2.2
2016-Feb-07 17:07 068 5 gusting 6 2.2
2016-Feb-07 17:02 113 5 gusting 6 2.2
2016-Feb-07 16:57 068 5 gusting 6 2.2
2016-Feb-07 16:52 113 4 gusting 8 2.2
2016-Feb-07 16:47 068 5 gusting 8 2.2
2016-Feb-07 16:42 068 5 gusting 8 2.2
2016-Feb-07 16:37 068 4 gusting 6 2.2
2016-Feb-07 16:32 068 4 gusting 7 2.2
2016-Feb-07 16:27 068 5 gusting 8 2.2
2016-Feb-07 16:22 090 5 gusting 10 2.2
2016-Feb-07 16:17 045 4 gusting 10 2.2
2016-Feb-07 16:12 068 4 gusting 10 1.7
2016-Feb-07 16:07 068 4 gusting 7 1.7
2016-Feb-07 16:02 068 5 gusting 7 1.7
2016-Feb-07 15:57 068 4 gusting 8 1.7
2016-Feb-07 15:52 090 4 gusting 9 1.7
2016-Feb-07 15:47 068 5 gusting 9 1.7
2016-Feb-07 15:42 090 6 gusting 9 1.7
2016-Feb-07 15:37 068 5 gusting 6 1.7
2016-Feb-07 15:32 068 4 gusting 6 1.7
2016-Feb-07 15:27 090 4 gusting 6 1.7
2016-Feb-07 15:22 090 3 gusting 6 1.7
2016-Feb-07 15:17 090 3 gusting 6 1.7
2016-Feb-07 15:12 023 3 gusting 7 1.7
2016-Feb-07 15:07 068 3 gusting 7 1.7
2016-Feb-07 15:02 068 4 gusting 7 1.7
2016-Feb-07 14:57 248 4 gusting 6 1.7
2016-Feb-07 14:52 068 3 gusting 6 1.7
2016-Feb-07 14:47 068 4 gusting 6 1.7
2016-Feb-07 14:42 113 3 gusting 6 1.7
2016-Feb-07 14:37 068 3 gusting 6 1.7
2016-Feb-07 14:32 023 3 gusting 6 1.7
2016-Feb-07 14:27 068 3 gusting 6 1.7
2016-Feb-07 14:22 068 3 gusting 6 1.7
2016-Feb-07 14:17 068 3 gusting 6 1.7
2016-Feb-07 14:12 068 3 gusting 6 1.7
2016-Feb-07 14:07 068 3 gusting 6 1.7
2016-Feb-07 14:02 068 3 gusting 6 1.7
2016-Feb-07 13:57 113 3 gusting 6 1.7
2016-Feb-07 13:52 068 3 gusting 6 1.7
2016-Feb-07 13:47 068 3 gusting 6 1.7
2016-Feb-07 13:42 090 3 gusting 6 1.7
2016-Feb-07 13:37 090 3 gusting 6 1.7
2016-Feb-07 13:32 090 3 gusting 6 1.7
2016-Feb-07 13:27 023 3 gusting 4 1.7
2016-Feb-07 13:22 068 3 gusting 4 1.7
2016-Feb-07 13:17 068 3 gusting 4 1.7
2016-Feb-07 13:12 068 3 gusting 4 1.7
2016-Feb-07 13:07 113 2 gusting 5 1.7
2016-Feb-07 13:02 045 2 gusting 5 1.7
2016-Feb-07 12:57 068 2 gusting 5 1.7
2016-Feb-07 12:52 045 2 gusting 5 1.7
2016-Feb-07 12:47 113 3 gusting 5 1.7
2016-Feb-07 12:42 090 3 gusting 5 1.7
2016-Feb-07 12:37 068 2 gusting 4 1.7
2016-Feb-07 12:32 113 2 gusting 4 1.7
2016-Feb-07 12:27 113 1 gusting 5 1.7
2016-Feb-07 12:22 068 1 gusting 5 1.7
2016-Feb-07 12:17 068 3 gusting 5 1.7
2016-Feb-07 12:12 068 3 gusting 4 1.7
2016-Feb-07 12:07 068 2 gusting 4 1.7
2016-Feb-07 12:02 068 2 gusting 4 1.7
2016-Feb-07 11:57 113 2 gusting 4 1.7
2016-Feb-07 11:52 090 2 gusting 3 1.7
2016-Feb-07 11:47 045 2 gusting 3 1.7
2016-Feb-07 11:42 068 2 gusting 3 1.7
2016-Feb-07 11:37 045 2 gusting 5 1.7
2016-Feb-07 11:32 068 3 gusting 5 1.7
2016-Feb-07 11:27 023 3 gusting 5 1.7
2016-Feb-07 11:22 090 3 gusting 6 1.7
2016-Feb-07 11:17 113 3 gusting 6 1.7
2016-Feb-07 11:12 068 3 gusting 6 1.7
2016-Feb-07 11:07 090 2 gusting 5 1.7
2016-Feb-07 11:02 113 2 gusting 3 1.7
2016-Feb-07 10:57 068 2 gusting 4 1.7
2016-Feb-07 10:52 090 2 gusting 4 1.7
2016-Feb-07 10:47 090 2 gusting 4 1.7
2016-Feb-07 10:42 090 2 gusting 3 1.7
2016-Feb-07 10:37 113 1 gusting 6 1.7
2016-Feb-07 10:32 113 1 gusting 6 1.7
2016-Feb-07 10:27 225 2 gusting 6 1.7
2016-Feb-07 10:22 090 2 gusting 6 1.7
2016-Feb-07 10:17 090 2 gusting 6 1.7
2016-Feb-07 10:12 090 3 gusting 6 1.7
2016-Feb-07 10:07 090 3 gusting 6 1.1
2016-Feb-07 10:02 090 3 gusting 6 1.1
2016-Feb-07 09:57 090 2 gusting 6 1.1
2016-Feb-07 09:52 068 2 gusting 3 1.1
2016-Feb-07 09:47 045 2 gusting 3 1.1
2016-Feb-07 09:42 1.1
2016-Feb-07 09:37 045 2 gusting 4 1.1
2016-Feb-07 09:32 068 3 gusting 4 1.1
2016-Feb-07 09:27 113 3 gusting 4 1.1
2016-Feb-07 09:22 068 3 gusting 5 1.1
2016-Feb-07 09:17 068 3 gusting 5 0.6
2016-Feb-07 09:12 045 3 gusting 5 0.6
2016-Feb-07 09:07 090 3 gusting 6 0.6
2016-Feb-07 09:02 045 3 gusting 6 0.6
2016-Feb-07 08:57 068 2 gusting 6 0.6
2016-Feb-07 08:52 090 2 gusting 4 0.6
2016-Feb-07 08:47 113 2 gusting 5 0.6
2016-Feb-07 08:42 068 2 gusting 5 0.6
2016-Feb-07 08:37 068 2 gusting 5 0.6
2016-Feb-07 08:32 090 3 gusting 4 0.6
2016-Feb-07 08:27 068 3 gusting 4 0.6
2016-Feb-07 08:22 068 2 gusting 4 -0.0
2016-Feb-07 08:17 068 3 gusting 4 -0.0
2016-Feb-07 08:12 068 3 gusting 5 -0.0
2016-Feb-07 08:07 068 2 gusting 6 -0.0
2016-Feb-07 08:02 068 3 gusting 6 -0.0
2016-Feb-07 07:57 068 3 gusting 6 -0.0
2016-Feb-07 07:52 068 2 gusting 4 -0.6
2016-Feb-07 07:47 090 1 gusting 4 -0.6
2016-Feb-07 07:42 068 1 gusting 4 -0.6
2016-Feb-07 07:37 045 2 gusting 5 -0.6
2016-Feb-07 07:32 113 3 gusting 5 -0.6
2016-Feb-07 07:27 068 3 gusting 5 -0.6
2016-Feb-07 07:22 068 2 gusting 5 -0.6
2016-Feb-07 07:17 068 2 gusting 5 -0.6
2016-Feb-07 07:12 068 3 gusting 5 -1.1
2016-Feb-07 07:07 113 3 gusting 5 -1.1
2016-Feb-07 07:02 090 3 gusting 9 -1.1
2016-Feb-07 06:57 068 3 gusting 9 -1.1
2016-Feb-07 06:52 068 3 gusting 9 -1.1
2016-Feb-07 06:47 068 3 gusting 6 -1.1
2016-Feb-07 06:42 113 4 gusting 6 -1.1
2016-Feb-07 06:37 158 4 gusting 6 -1.1
2016-Feb-07 06:32 068 3 gusting 5 -1.1
2016-Feb-07 06:27 068 3 gusting 6 -1.1
2016-Feb-07 06:22 068 3 gusting 6 -1.1
2016-Feb-07 06:17 068 4 gusting 6 -1.1
2016-Feb-07 06:12 068 4 gusting 6 -1.1
2016-Feb-07 06:07 068 4 gusting 6 -1.7
2016-Feb-07 06:02 090 4 gusting 8 -1.7
2016-Feb-07 05:57 068 4 gusting 8 -1.7
2016-Feb-07 05:52 068 4 gusting 5 -1.7
2016-Feb-07 05:47 068 4 gusting 6 -1.7
2016-Feb-07 05:42 090 4 gusting 8 -1.7
2016-Feb-07 05:37 068 5 gusting 8 -1.7
2016-Feb-07 05:32 068 5 gusting 8 -1.7
2016-Feb-07 05:27 045 5 gusting 7 -1.7
2016-Feb-07 05:22 045 4 gusting 6 -1.7
2016-Feb-07 05:17 090 4 gusting 6 -1.7
2016-Feb-07 05:12 068 4 gusting 6 -1.7
2016-Feb-07 05:07 113 3 gusting 8 -2.2
2016-Feb-07 05:02 270 3 gusting 8 -2.2
2016-Feb-07 04:57 045 4 gusting 8 -1.7
2016-Feb-07 04:52 090 4 gusting 9 -2.2
2016-Feb-07 04:47 113 4 gusting 9 -2.2
2016-Feb-07 04:42 068 4 gusting 9 -2.2
2016-Feb-07 04:37 068 5 gusting 8 -2.2
2016-Feb-07 04:32 045 5 gusting 8 -2.2
2016-Feb-07 04:27 068 4 gusting 7 -2.2
2016-Feb-07 04:22 068 4 gusting 7 -2.2
2016-Feb-07 04:17 068 4 gusting 7 -2.2
2016-Feb-07 04:12 068 4 gusting 7 -2.2
2016-Feb-07 04:07 068 4 gusting 7 -2.2
2016-Feb-07 04:02 068 4 gusting 8 -2.2
2016-Feb-07 03:57 045 4 gusting 8 -2.2
2016-Feb-07 03:52 158 5 gusting 10 -2.2
2016-Feb-07 03:47 090 5 gusting 10 -2.2
2016-Feb-07 03:42 068 6 gusting 10 -2.2
2016-Feb-07 03:37 068 6 gusting 8 -2.2
2016-Feb-07 03:32 045 6 gusting 8 -2.2
2016-Feb-07 03:27 113 6 gusting 7 -2.2
2016-Feb-07 03:22 113 5 gusting 10 -2.2
2016-Feb-07 03:17 090 5 gusting 10 -2.2
2016-Feb-07 03:12 068 6 gusting 10 -2.2
2016-Feb-07 03:07 068 5 gusting 7 -2.2
2016-Feb-07 03:02 068 4 gusting 7 -2.2
2016-Feb-07 02:57 090 5 gusting 9 -2.2
2016-Feb-07 02:52 113 6 gusting 9 -2.2
2016-Feb-07 02:47 068 5 gusting 9 -2.2
2016-Feb-07 02:42 045 5 gusting 10 -2.2
2016-Feb-07 02:37 068 6 gusting 11 -2.2
2016-Feb-07 02:32 068 6 gusting 11 -2.2
2016-Feb-07 02:27 045 6 gusting 11 -2.2
2016-Feb-07 02:22 135 5 gusting 8 -2.8
2016-Feb-07 02:17 068 5 gusting 7 -2.2
2016-Feb-07 02:12 045 5 gusting 10 -2.2
2016-Feb-07 02:07 068 5 gusting 10 -2.2
2016-Feb-07 02:02 113 6 gusting 10 -2.2
2016-Feb-07 01:57 068 6 gusting 6 -2.8
2016-Feb-07 01:52 068 5 gusting 7 -2.8
2016-Feb-07 01:47 068 5 gusting 7 -2.8
2016-Feb-07 01:42 045 6 gusting 7 -2.8
2016-Feb-07 01:37 045 5 gusting 7 -2.8
2016-Feb-07 01:32 045 6 gusting 7 -2.8
2016-Feb-07 01:27 045 6 gusting 7 -2.8
2016-Feb-07 01:22 068 5 gusting 7 -2.8
2016-Feb-07 01:17 068 5 gusting 7 -2.8
2016-Feb-07 01:12 045 5 gusting 7 -2.8
2016-Feb-07 01:07 045 5 gusting 7 -2.8
2016-Feb-07 01:02 045 5 gusting 6 -2.8
2016-Feb-07 00:57 090 5 gusting 8 -2.8
2016-Feb-07 00:52 045 5 gusting 8 -2.8
2016-Feb-07 00:47 068 6 gusting 8 -2.8
2016-Feb-07 00:42 068 6 gusting 8 -3.3
2016-Feb-07 00:37 090 4 gusting 8 -3.3
2016-Feb-07 00:32 068 5 gusting 10 -3.3
2016-Feb-07 00:27 068 6 gusting 10 -3.3
2016-Feb-07 00:22 068 6 gusting 10 -3.3
2016-Feb-07 00:17 113 5 gusting 9 -3.3
2016-Feb-07 00:12 068 6 gusting 9 -3.3
2016-Feb-07 00:07 045 6 gusting 9 -3.3
2016-Feb-07 00:02 -3.3
2016-Feb-06 23:57 090 6 gusting 14 -3.3
2016-Feb-06 23:52 068 6 gusting 14 -3.3
2016-Feb-06 23:47 068 6 gusting 9 -3.3
2016-Feb-06 23:42 068 6 gusting 10 -3.3
2016-Feb-06 23:37 090 6 gusting 10 -3.3
2016-Feb-06 23:32 338 6 gusting 9 -3.3
2016-Feb-06 23:27 045 6 gusting 9 -3.3
2016-Feb-06 23:22 045 6 gusting 8 -3.9
2016-Feb-06 23:17 090 5 gusting 13 -3.9
2016-Feb-06 23:12 068 5 gusting 13 -3.9
2016-Feb-06 23:07 068 5 gusting 13 -3.9
2016-Feb-06 23:02 068 5 gusting 9 -3.9
2016-Feb-06 22:57 045 5 gusting 9 -3.9
2016-Feb-06 22:52 045 5 gusting 10 -3.9
2016-Feb-06 22:47 135 6 gusting 10 -4.4
2016-Feb-06 22:42 068 6 gusting 10 -4.4
2016-Feb-06 22:37 023 5 gusting 9 -4.4
2016-Feb-06 22:32 045 4 gusting 6 -4.4
2016-Feb-06 22:27 045 4 gusting 5 -4.4
2016-Feb-06 22:22 045 3 gusting 5 -5.0
2016-Feb-06 22:17 045 3 gusting 3 -5.0
2016-Feb-06 22:12 023 5 gusting 10 -5.0
2016-Feb-06 22:07 023 5 gusting 10 -5.0
2016-Feb-06 21:57 023 5 gusting 7 -5.6
2016-Feb-06 21:52 045 4 gusting 7 -5.6
2016-Feb-06 21:47 068 3 gusting 5 -5.6
2016-Feb-06 21:42 023 3 gusting 5 -5.6
2016-Feb-06 21:37 023 4 gusting 4 -5.6
2016-Feb-06 21:32 045 4 gusting 5 -5.6
2016-Feb-06 21:27 023 3 gusting 6 -5.6
2016-Feb-06 21:22 045 4 gusting 6 -5.6
2016-Feb-06 21:17 338 4 gusting 6 -5.6
2016-Feb-06 21:12 045 4 gusting 6 -5.6
2016-Feb-06 21:07 045 4 gusting 6 -5.6
2016-Feb-06 21:02 045 4 gusting 6 -5.6
2016-Feb-06 20:57 023 4 gusting 6 -6.1
2016-Feb-06 20:52 023 4 gusting 6 -6.1
2016-Feb-06 20:47 045 4 gusting 6 -6.1
2016-Feb-06 20:42 045 4 gusting 10 -6.1
2016-Feb-06 20:37 023 4 gusting 10 -6.1
2016-Feb-06 20:32 023 5 gusting 10 -6.1
2016-Feb-06 20:27 023 5 gusting 12 -6.1
2016-Feb-06 20:22 023 6 gusting 12 -6.1
2016-Feb-06 20:17 023 5 gusting 12 -6.1
2016-Feb-06 20:12 023 5 gusting 6 -6.1
2016-Feb-06 20:07 068 4 gusting 6 -6.1
2016-Feb-06 20:02 -6.1
2016-Feb-06 19:57 023 4 gusting 9 -6.7
2016-Feb-06 19:52 023 5 gusting 6 -6.7
2016-Feb-06 19:47 045 5 gusting 6 -6.1
2016-Feb-06 19:42 023 4 gusting 6 -6.7
2016-Feb-06 19:37 -6.7
2016-Feb-06 19:32 045 4 gusting 7 -6.7
2016-Feb-06 19:27 -6.7
2016-Feb-06 19:22 023 4 gusting 9 -6.7
2016-Feb-06 19:17 045 5 gusting 9 -6.7
2016-Feb-06 19:12 023 5 gusting 9 -6.7
2016-Feb-06 19:07 023 4 gusting 6 -6.7
2016-Feb-06 19:02 023 4 gusting 6 -6.7
2016-Feb-06 18:57 023 4 gusting 6 -6.7
2016-Feb-06 18:52 338 3 gusting 6 -6.7
2016-Feb-06 18:47 023 3 gusting 6 -6.7
2016-Feb-06 18:42 045 4 gusting 8 -6.7
2016-Feb-06 18:37 045 4 gusting 8 -6.7
2016-Feb-06 18:32 023 4 gusting 5 -6.7
2016-Feb-06 18:27 023 3 gusting 5 -6.7
2016-Feb-06 18:22 045 3 gusting 5 -6.7
2016-Feb-06 18:17 023 3 gusting 5 -6.7
2016-Feb-06 18:12 068 3 gusting 4 -6.7
2016-Feb-06 18:07 023 3 gusting 5 -6.7
2016-Feb-06 18:02 023 3 gusting 6 -6.7
2016-Feb-06 17:57 045 3 gusting 6 -6.7
2016-Feb-06 17:52 068 3 gusting 11 -6.7
2016-Feb-06 17:47 068 5 gusting 11 -6.7
2016-Feb-06 17:42 023 5 gusting 11 -6.7
2016-Feb-06 17:37 045 5 gusting 6 -6.7
2016-Feb-06 17:32 045 3 gusting 5 -6.7
2016-Feb-06 17:27 045 3 gusting 6 -6.7
2016-Feb-06 17:22 023 4 gusting 6 -6.7
2016-Feb-06 17:17 068 3 gusting 6 -6.7
2016-Feb-06 17:12 068 3 gusting 5 -6.7
2016-Feb-06 17:07 068 3 gusting 5 -6.7
2016-Feb-06 17:02 113 3 gusting 5 -6.7
2016-Feb-06 16:57 045 3 gusting 8 -6.7
2016-Feb-06 16:52 068 2 gusting 8 -6.7
2016-Feb-06 16:47 023 3 gusting 8 -6.7
2016-Feb-06 16:42 045 3 gusting 7 -6.7
2016-Feb-06 16:37 -6.7
2016-Feb-06 16:32 045 4 gusting 9 -6.7
2016-Feb-06 16:27 090 5 gusting 9 -6.7
2016-Feb-06 16:22 045 6 gusting 9 -6.1
2016-Feb-06 16:17 090 6 gusting 8 -6.1
2016-Feb-06 16:12 113 5 gusting 6 -6.1
2016-Feb-06 16:07 068 4 gusting 6 -6.1
2016-Feb-06 16:02 068 3 gusting 6 -6.1
2016-Feb-06 15:57 023 4 gusting 6 -6.1
2016-Feb-06 15:52 090 5 gusting 6 -6.1
2016-Feb-06 15:47 113 5 gusting 6 -6.1
2016-Feb-06 15:42 068 4 gusting 7 -5.6
2016-Feb-06 15:37 045 4 gusting 7 -5.6
2016-Feb-06 15:32 113 4 gusting 7 -5.6
2016-Feb-06 15:27 068 4 gusting 7 -5.6
2016-Feb-06 15:22 113 4 gusting 5 -5.6
2016-Feb-06 15:17 045 4 gusting 6 -5.6
2016-Feb-06 15:12 068 3 gusting 6 -5.6
2016-Feb-06 15:07 068 3 gusting 6 -5.6
2016-Feb-06 15:02 045 3 gusting 5 -5.6
2016-Feb-06 14:57 045 2 gusting 4 -5.6
2016-Feb-06 14:52 045 1 gusting 3 -5.6
2016-Feb-06 14:47 068 1 gusting 5 -5.6
2016-Feb-06 14:42 068 2 gusting 5 -5.6
2016-Feb-06 14:37 068 2 gusting 5 -5.6
2016-Feb-06 14:32 068 2 gusting 4 -5.6
2016-Feb-06 14:27 068 3 gusting 5 -5.6
2016-Feb-06 14:22 113 3 gusting 6 -5.6
2016-Feb-06 14:17 068 3 gusting 6 -5.6
2016-Feb-06 14:12 068 2 gusting 6 -5.6
2016-Feb-06 14:07 045 1 gusting 4 -5.0
2016-Feb-06 14:02 045 1 gusting 2 -5.0